Regional Weather Roundup
Issued by NWS

Home | Current Version | Previous Version | Graphics & Text | Print | Product List | Glossary On
Versions: 1 2 3 4 5 6 7 8 9 10 11 12 13 14 15 16 17 18 19 20 21 22 23 24 25 26 27 28 29 30 31 32 33 34 35 36 37 38 39 40 41 42 43 44 45 46 47 48 49 50
401
ASUS44 KJAN 170703
RWRMS

MISSISSIPPI HOURLY WEATHER ROUNDUP
NATIONAL WEATHER SERVICE JACKSON MS
200 AM CDT THU APR 17 2014

NOTE: "FAIR: INDICATES FEW OR NO CLOUDS BELOW 12,000 FEET WITH NO
SIGNIFICANT WEATHER AND/OR OBSTRUCTIONS TO VISIBILITY.

MSZ001>002-007>008-010>013-018>021-025>028-034>036-170800-
NORTHWEST MISSISSIPPI

CITY           SKY/WX    TMP DP  RH WIND       PRES   REMARKS
CLARKSDALE       N/A     45  41  87 CALM      30.20S
CLEVELAND      FAIR      46  42  85 E5        30.18F
GREENWOOD      CLEAR     44  38  79 CALM      30.19S
GREENVILLE     CLEAR     47  42  83 CALM      30.17S
GRENADA        FAIR      37  37 100 CALM      30.20F
OLIVE BRANCH   CLEAR     43  36  75 S5        30.20S
OXFORD         FAIR      43  36  75 CALM      30.22S
TUNICA         SUNNY     43  41  93 SE3       30.20F
$$

MSZ003>006-009-014>017-022>024-029>033-037>039-170800-
NORTHEAST MISSISSIPPI

CITY           SKY/WX    TMP DP  RH WIND       PRES   REMARKS
BELMONT        FAIR      40  38  91 CALM      30.23S
COLUMBUS AFB   CLEAR     43  42  97 CALM      30.23R
CORINTH        FAIR      39  37  93 SE3       30.22F
GOLDN TRIANGLE CLEAR     52  36  54 SE10      30.24S
STARKVILLE     FAIR      41  39  93 CALM      30.21S
TUPELO         CLEAR     42  39  89 CALM      30.22S
$$

MSZ040-058-170800-
CENTRAL MISSISSIPPI

CITY           SKY/WX    TMP DP  RH WIND       PRES   REMARKS
JACKSON INTL   CLEAR     44  38  79 SE6       30.18R
JACKSON HAWKNS CLEAR     48  37  65 SE5       30.18R
MERIDIAN KEY   CLEAR     43  40  89 SW3       30.20R
MERIDIAN NAS   FAIR      44  40  85 CALM      30.21R
RAYMOND        FAIR      41  37  87 MISG      30.18R
VICKSBURG      CLEAR     50  44  80 SE5       30.17S
$$

MSZ059>079-170800-
SOUTH MISSISSIPPI

CITY           SKY/WX    TMP DP  RH WIND       PRES   REMARKS
BROOKHAVEN     FAIR      43  41  93 CALM      30.17F
COLUMBIA       FAIR      41  39  93 MISG      30.16F FOG
HATTIESBURG    CLEAR     43  42  97 CALM      30.18S
MCCOMB         PTCLDY    43  40  89 CALM      30.16S
NATCHEZ        CLEAR     46  39  76 S5        30.15S
PINE BELT      CLEAR     43  37  81 CALM      30.19S
$$

MSZ080>082-170800-
COASTAL MISSISSIPPI

CITY           SKY/WX    TMP DP  RH WIND       PRES   REMARKS
BILOXI         CLEAR     49  47  93 E5        30.15F
PASCAGOULA     CLEAR     47  46  97 N3        30.16F
GULFPORT       PTCLDY    51  45  79 CALM      30.15F
$$



USA.gov is the U.S. government's official web portal to all federal, state and local government web resources and services.